Skip Page Navigation
NASA JPL Caltech
NASA Logo - Jet Propulsion Laboratory + View the NASA Portal
+ Center for Near-Earth Object Studies
JPL Home Earth Solar System Stars & Galaxies Technology
JPL Solar System Dynamics
BODIES ORBITS EPHEMERIDES TOOLS PHYSICAL DATA DISCOVERY FAQ SITE MAP
JPL Small-Body Database Browser
Search: [ help ]  
24842 (1995 UQ46)
Classification: Main-belt Asteroid          SPK-ID: 2024842
Ephemeris | Orbit Diagram | Orbital Elements | Mission Design | Physical Parameters | Discovery Circumstances ]

[ show orbit diagram ]
Orbital Elements at Epoch 2459200.5 (2020-Dec-17.0) TDB
Reference: JPL 25 (heliocentric ecliptic J2000)
 Element Value Uncertainty (1-sigma)   Units 
e .2562307904358989 3.9754e-08  
a 2.313694326018497 6.126e-09 au
q 1.720854600035723 9.2971e-08 au
i 4.318805948642527 4.2017e-06 deg
node 28.10516295636506 4.7425e-05 deg
peri 315.4836037724759 4.7858e-05 deg
M 76.63126660063088 6.7826e-06 deg
tp 2458926.871769302270
(2020-Mar-18.37176930)
2.3689e-05 TDB
period 1285.456543013367
3.52
5.1053e-06
1.398e-08
d
yr
n .2800561418872147 1.1123e-09 deg/d
Q 2.906534052001271 7.6956e-09 au
  Orbit Determination Parameters
   # obs. used (total)      1297  
   data-arc span      9252 days (25.33 yr)  
   first obs. used      1995-10-20  
   last obs. used      2021-02-17  
   planetary ephem.      DE441  
   SB-pert. ephem.      SB441-N16  
   condition code      0  
   norm. resid. RMS      .5328  
   source      ORB  
   producer      Otto Matic  
   solution date      2021-Apr-13 04:50:05  

Additional Information
 Earth MOID = .714959 au 
 Jupiter MOID = 2.51343 au 
 T_jup = 3.534 
[ show covariance matrix ]

Ephemeris | Orbit Diagram | Orbital Elements | Mission Design | Physical Parameters | Discovery Circumstances ]

Physical Parameter Table
Parameter Symbol Value Units Sigma Reference Notes
absolute magnitude H 15.21   n/a MPCxxxxx  

24842 (1995 UQ46)          Discovered 1995-Oct-20 by Elst, E. W. at Caussols
Reference: 20010606/Numbers.arcLast Updated: 2004-04-19

Alternate Designations
 1995 UQ46 = 2000 AZ134 
Ephemeris | Orbit Diagram | Orbital Elements | Mission Design | Physical Parameters | Discovery Circumstances ]
ABOUT SSD CREDITS/AWARDS PRIVACY/COPYRIGHT GLOSSARY LINKS
FirstGov 2021-Jun-15 22:50 UT
(server date/time)  
NASA Home Page
Site Manager:   Ryan S. Park
Webmaster  Alan B. Chamberlin